Location: Arbon
(43.0005°N, 0.7472°E)
Time: 17:39:27
(UTC+00:00)

Cosmos 2322 Rocket - Pass Details

Date: 07 August 2020
Orbit: 831 x 852 km, 71.0° (Epoch: 23 September)

Event Time Altitude Azimuth Distance (km) Brightness Sun altitude
Rises 00:11:14 0° 324° (NW) 3,418 6.1 -30.6°
Reaches altitude 10° 00:14:03 10° 312° (NW) 2,481 5.0 -30.6°
Enters shadow 00:17:05 23° 283° (WNW) 1,753 3.9 -30.6°
